Regional Weather Roundup
Issued by NWS

Home | Current Version | Previous Version | Text Only | Print | Product List | Glossary On
Versions: 1 2 3 4 5 6 7 8 9 10 11 12 13 14 15 16 17 18 19 20 21 22 23 24 25 26 27
000
ASUS42 KFFC 231203
RWRGA
WEATHER ROUNDUP FOR GEORGIA
NATIONAL WEATHER SERVICE PEACHTREE CITY GA
800 AM EDT THU OCT 23 2014

NOTE: "FAIR" INDICATES FEW OR NO CLOUDS BELOW 12,000 FEET WITH NO
SIGNIFICANT WEATHER AND/OR OBSTRUCTIONS TO VISIBILITY.

* = USE WITH CAUTION. THE STATIONS MARKED WITH AN ASTERISK MAY NOT
REPORT WEATHER SUCH AS PRECIPITATION, FOG, OR THUNDER AND ARE NOT
QUALITY CONTROLLED BY NWS.

THE REMARK "TC" DENOTES TEMPERATURE READING IN DEGREES CELSIUS.

GAZ001>058-231300-
NORTH GEORGIA

CITY           SKY/WX    TMP DP  RH WIND       PRES   REMARKS
ATLANTA        CLEAR     44  40  85 NW9       30.13R
6HR MIN TEMP:  44; 6HR MAX TEMP:  50;

ATHENS         CLEAR     39  37  92 W3        30.12R
6HR MIN TEMP:  39; 6HR MAX TEMP:  44;

CHAMBLEE       CLEAR     40  38  93 CALM      30.14R
6HR MIN TEMP:  40; 6HR MAX TEMP:  46;

PEACHTREE CITY CLEAR     38  36  92 CALM      30.14R
6HR MIN TEMP:  38; 6HR MAX TEMP:  43;

ROME           CLEAR     41  39  93 CALM      30.17R
6HR MIN TEMP:  40; 6HR MAX TEMP:  47;

WEST ATLANTA   CLEAR     42  39  89 CALM      30.15R
6HR MIN TEMP:  41; 6HR MAX TEMP:  48;

GAINESVILLE    CLEAR     44  40  85 CALM      30.13S
6HR MIN TEMP:  42; 6HR MAX TEMP:  47;

CARTERSVILLE   CLEAR     39  37  92 CALM      30.17R
6HR MIN TEMP:  38; 6HR MAX TEMP:  46;



CITY           SKY/WX    TMP DP  RH WIND       PRES   REMARKS
DALTON*        CLEAR     41  41 100 N12       30.17S
LAWRENCEVILLE* CLEAR     39  34  81 CALM      30.11R
MARIETTA       CLEAR     40  39  97 W6        30.14R
KENNESAW*      FOG       41  36  81 W5        30.16R VSB 1
$$

GAZ059>098-102>109-231300-
CENTRAL GEORGIA

CITY           SKY/WX    TMP DP  RH WIND       PRES   REMARKS
AUGUSTA-BUSH   CLEAR     36  35  96 CALM      30.10S
6HR MIN TEMP:  36; 6HR MAX TEMP:  49;

AUGUSTA-DANIEL CLEAR     47  40  76 N9        30.10S
6HR MIN TEMP:  46; 6HR MAX TEMP:  53;

COLUMBUS       CLEAR     46  41  82 CALM      30.13R
6HR MIN TEMP:  46; 6HR MAX TEMP:  53;

MACON          CLEAR     38  38 100 CALM      30.13R
6HR MIN TEMP:  37; 6HR MAX TEMP:  44;

ROBINS AFB     CLEAR     40  39  95 N3        30.11R


CITY           SKY/WX    TMP DP  RH WIND       PRES   REMARKS
LAGRANGE*      CLEAR     43  41  95 CALM      30.14R
SYLVANIA*      CLEAR     45  44  97 CALM      30.11S
MILLEDGEVILLE* CLEAR     43  43 100 CALM      30.12R
$$

GAZ099>101-110>166-231300-
SOUTH GEORGIA

CITY           SKY/WX    TMP DP  RH WIND       PRES   REMARKS
SAVANNAH       CLEAR     47  42  83 N3        30.09F
6HR MIN TEMP:  46; 6HR MAX TEMP:  52;

VALDOSTA       CLEAR     47  42  83 NE5       30.08R
6HR MIN TEMP:  43; 6HR MAX TEMP:  48;

ALMA           CLEAR     46  42  86 VRB3      30.09R
6HR MIN TEMP:  42; 6HR MAX TEMP:  49;

ST SIMONS      CLEAR     51  50  96 N7        30.06S
6HR MIN TEMP:  51; 6HR MAX TEMP:  54;

FT STEWART     CLEAR     45  42  88 N2        30.08S
ALBANY         CLEAR     47  44  90 N3        30.12R
HUNTER AFB     CLEAR     49  44  83 N3        30.07S
MOODY AFB      CLEAR     46  42  85 NE6       30.08R
BRUNSWICK      CLEAR     50  46  87 CALM      30.08S


CITY           SKY/WX    TMP DP  RH WIND       PRES   REMARKS
BAINBRIDGE*    CLEAR     46  45  93 CALM      30.08S
MOULTRIE*      CLEAR     50  45  81 NE5       30.10R
VIDALIA*       CLEAR     43  43 100 CALM      30.10S
WAYCROSS*      CLEAR     48  46  93 CALM      30.09R
DOUGLAS*       CLEAR     50  43  76 NE6       30.11R
$$



USA.gov is the U.S. government's official web portal to all federal, state and local government web resources and services.